Main page
Satellite images Climate Cyclones Lightning AirportsFAQ Languages Contact Newsletter About
Weather : Europe Africa North America South America Asia Australia-Oceania Others

, Nan, Nan Nakhon Airport

48331

latitude: , longitude: Thailand, elevation: 18-46N m


METAR: VTCN 180800Z 36004KT 310V050 9999 FEW020TCU FEW022 34/20 Q1006